owner,sensor,date,latitude,longitude,vertical_datum,sea_water_practical_salinity,qcFlag 
LUMCON,ioos:station:LUMCON:102:1,2011-05-01T01:00:00Z,29.1870,-90.6093,-9999.0,18.26,1111122 
LUMCON,ioos:station:LUMCON:102:1,2011-05-01T02:00:00Z,29.1870,-90.6093,-9999.0,18.19,1111122 
LUMCON,ioos:station:LUMCON:102:1,2011-05-01T03:00:00Z,29.1870,-90.6093,-9999.0,18.13,1111122 
LUMCON,ioos:station:LUMCON:102:1,2011-05-01T04:00:00Z,29.1870,-90.6093,-9999.0,17.97,1111122 
LUMCON,ioos:station:LUMCON:102:1,2011-05-01T05:00:00Z,29.1870,-90.6093,-9999.0,18.02,1111122 
LUMCON,ioos:station:LUMCON:102:1,2011-05-01T06:00:00Z,29.1870,-90.6093,-9999.0,18.03,1111122 
LUMCON,ioos:station:LUMCON:102:1,2011-05-01T07:00:00Z,29.1870,-90.6093,-9999.0,18.01,1111122 
LUMCON,ioos:station:LUMCON:102:1,2011-05-01T08:00:00Z,29.1870,-90.6093,-9999.0,18.19,1111122 
LUMCON,ioos:station:LUMCON:102:1,2011-05-01T09:00:00Z,29.1870,-90.6093,-9999.0,19.25,1111122 
LUMCON,ioos:station:LUMCON:102:1,2011-05-01T10:00:00Z,29.1870,-90.6093,-9999.0,19.15,1111122 
LUMCON,ioos:station:LUMCON:102:1,2011-05-01T11:00:00Z,29.1870,-90.6093,-9999.0,19.13,1111122 
LUMCON,ioos:station:LUMCON:102:1,2011-05-01T12:00:00Z,29.1870,-90.6093,-9999.0,19.09,1111122 
LUMCON,ioos:station:LUMCON:102:1,2011-05-01T13:00:00Z,29.1870,-90.6093,-9999.0,18.97,1111122 
LUMCON,ioos:station:LUMCON:102:1,2011-05-01T14:00:00Z,29.1870,-90.6093,-9999.0,18.87,1111122 
LUMCON,ioos:station:LUMCON:102:1,2011-05-01T15:00:00Z,29.1870,-90.6093,-9999.0,18.89,1111122 
LUMCON,ioos:station:LUMCON:102:1,2011-05-01T16:00:00Z,29.1870,-90.6093,-9999.0,19.17,1111122 
LUMCON,ioos:station:LUMCON:102:1,2011-05-01T17:00:00Z,29.1870,-90.6093,-9999.0,19.27,1111122 
LUMCON,ioos:station:LUMCON:102:1,2011-05-01T18:00:00Z,29.1870,-90.6093,-9999.0,18.89,1111122 
LUMCON,ioos:station:LUMCON:102:1,2011-05-01T19:00:00Z,29.1870,-90.6093,-9999.0,18.54,1111122 
LUMCON,ioos:station:LUMCON:102:1,2011-05-01T20:00:00Z,29.1870,-90.6093,-9999.0,18.59,1111122 
LUMCON,ioos:station:LUMCON:102:1,2011-05-01T21:00:00Z,29.1870,-90.6093,-9999.0,18.23,1111122 
LUMCON,ioos:station:LUMCON:102:1,2011-05-01T22:00:00Z,29.1870,-90.6093,-9999.0,17.47,1111122 
LUMCON,ioos:station:LUMCON:102:1,2011-05-01T23:00:00Z,29.1870,-90.6093,-9999.0,17.28,1111122 
LUMCON,ioos:station:LUMCON:102:1,2011-05-01T24:00:00Z,29.1870,-90.6093,-9999.0,16.51,1111122 
LUMCON,ioos:station:LUMCON:102:1,2011-05-02T01:00:00Z,29.1870,-90.6093,-9999.0,16.99,1111122 
LUMCON,ioos:station:LUMCON:102:1,2011-05-02T02:00:00Z,29.1870,-90.6093,-9999.0,16.89,1111122 
LUMCON,ioos:station:LUMCON:102:1,2011-05-02T03:00:00Z,29.1870,-90.6093,-9999.0,16.67,1111122 
LUMCON,ioos:station:LUMCON:102:1,2011-05-02T04:00:00Z,29.1870,-90.6093,-9999.0,16.59,1111122 
LUMCON,ioos:station:LUMCON:102:1,2011-05-02T05:00:00Z,29.1870,-90.6093,-9999.0,16.67,1111122 
LUMCON,ioos:station:LUMCON:102:1,2011-05-02T06:00:00Z,29.1870,-90.6093,-9999.0,16.7,1111122 
LUMCON,ioos:station:LUMCON:102:1,2011-05-02T07:00:00Z,29.1870,-90.6093,-9999.0,16.75,1111122 
LUMCON,ioos:station:LUMCON:102:1,2011-05-02T08:00:00Z,29.1870,-90.6093,-9999.0,16.92,1111122 
LUMCON,ioos:station:LUMCON:102:1,2011-05-02T09:00:00Z,29.1870,-90.6093,-9999.0,17.22,1111122 
LUMCON,ioos:station:LUMCON:102:1,2011-05-02T10:00:00Z,29.1870,-90.6093,-9999.0,17.28,1111122 
LUMCON,ioos:station:LUMCON:102:1,2011-05-02T11:00:00Z,29.1870,-90.6093,-9999.0,17.71,1111122 
LUMCON,ioos:station:LUMCON:102:1,2011-05-02T12:00:00Z,29.1870,-90.6093,-9999.0,17.99,1111122 
LUMCON,ioos:station:LUMCON:102:1,2011-05-02T13:00:00Z,29.1870,-90.6093,-9999.0,17.99,1111122 
LUMCON,ioos:station:LUMCON:102:1,2011-05-02T14:00:00Z,29.1870,-90.6093,-9999.0,17.84,1111122 
LUMCON,ioos:station:LUMCON:102:1,2011-05-02T15:00:00Z,29.1870,-90.6093,-9999.0,17.79,1111122 
LUMCON,ioos:station:LUMCON:102:1,2011-05-02T16:00:00Z,29.1870,-90.6093,-9999.0,17.67,1111122 
LUMCON,ioos:station:LUMCON:102:1,2011-05-02T17:00:00Z,29.1870,-90.6093,-9999.0,17.45,1111122 
LUMCON,ioos:station:LUMCON:102:1,2011-05-02T18:00:00Z,29.1870,-90.6093,-9999.0,17.07,1111122 
LUMCON,ioos:station:LUMCON:102:1,2011-05-02T19:00:00Z,29.1870,-90.6093,-9999.0,16.4,1111122 
LUMCON,ioos:station:LUMCON:102:1,2011-05-02T20:00:00Z,29.1870,-90.6093,-9999.0,16.05,1111122 
LUMCON,ioos:station:LUMCON:102:1,2011-05-02T21:00:00Z,29.1870,-90.6093,-9999.0,15.65,1111122 
LUMCON,ioos:station:LUMCON:102:1,2011-05-02T22:00:00Z,29.1870,-90.6093,-9999.0,14.76,1111122 
LUMCON,ioos:station:LUMCON:102:1,2011-05-02T23:00:00Z,29.1870,-90.6093,-9999.0,13.72,1111122 
LUMCON,ioos:station:LUMCON:102:1,2011-05-02T24:00:00Z,29.1870,-90.6093,-9999.0,15.08,1111122 
LUMCON,ioos:station:LUMCON:102:1,2011-05-03T01:00:00Z,29.1870,-90.6093,-9999.0,16.03,1111122 
LUMCON,ioos:station:LUMCON:102:1,2011-05-03T02:00:00Z,29.1870,-90.6093,-9999.0,16.31,1111122 
LUMCON,ioos:station:LUMCON:102:1,2011-05-03T03:00:00Z,29.1870,-90.6093,-9999.0,16.64,1111122 
LUMCON,ioos:station:LUMCON:102:1,2011-05-03T04:00:00Z,29.1870,-90.6093,-9999.0,17.0,1111122 
LUMCON,ioos:station:LUMCON:102:1,2011-05-03T05:00:00Z,29.1870,-90.6093,-9999.0,16.8,1111122 
LUMCON,ioos:station:LUMCON:102:1,2011-05-03T06:00:00Z,29.1870,-90.6093,-9999.0,16.82,1111122 
LUMCON,ioos:station:LUMCON:102:1,2011-05-03T07:00:00Z,29.1870,-90.6093,-9999.0,16.45,1111122 
LUMCON,ioos:station:LUMCON:102:1,2011-05-03T08:00:00Z,29.1870,-90.6093,-9999.0,16.62,1111122 
LUMCON,ioos:station:LUMCON:102:1,2011-05-03T09:00:00Z,29.1870,-90.6093,-9999.0,16.73,1111122 
LUMCON,ioos:station:LUMCON:102:1,2011-05-03T10:00:00Z,29.1870,-90.6093,-9999.0,17.6,1111122 
LUMCON,ioos:station:LUMCON:102:1,2011-05-03T11:00:00Z,29.1870,-90.6093,-9999.0,18.91,1111122 
LUMCON,ioos:station:LUMCON:102:1,2011-05-03T12:00:00Z,29.1870,-90.6093,-9999.0,19.08,1111122 
LUMCON,ioos:station:LUMCON:102:1,2011-05-03T13:00:00Z,29.1870,-90.6093,-9999.0,20.2,1111122 
LUMCON,ioos:station:LUMCON:102:1,2011-05-03T14:00:00Z,29.1870,-90.6093,-9999.0,20.12,1111122 
LUMCON,ioos:station:LUMCON:102:1,2011-05-03T15:00:00Z,29.1870,-90.6093,-9999.0,19.66,1111122 
LUMCON,ioos:station:LUMCON:102:1,2011-05-03T16:00:00Z,29.1870,-90.6093,-9999.0,19.66,1111122 
LUMCON,ioos:station:LUMCON:102:1,2011-05-03T17:00:00Z,29.1870,-90.6093,-9999.0,21.0,1111122 
LUMCON,ioos:station:LUMCON:102:1,2011-05-03T18:00:00Z,29.1870,-90.6093,-9999.0,20.92,1111122 
LUMCON,ioos:station:LUMCON:102:1,2011-05-03T19:00:00Z,29.1870,-90.6093,-9999.0,20.68,1111122 
LUMCON,ioos:station:LUMCON:102:1,2011-05-03T20:00:00Z,29.1870,-90.6093,-9999.0,19.9,1111122 
LUMCON,ioos:station:LUMCON:102:1,2011-05-03T21:00:00Z,29.1870,-90.6093,-9999.0,18.64,1111122 
LUMCON,ioos:station:LUMCON:102:1,2011-05-03T22:00:00Z,29.1870,-90.6093,-9999.0,17.38,1111122 
LUMCON,ioos:station:LUMCON:102:1,2011-05-03T23:00:00Z,29.1870,-90.6093,-9999.0,16.94,1111122 
LUMCON,ioos:station:LUMCON:102:1,2011-05-03T24:00:00Z,29.1870,-90.6093,-9999.0,16.82,1111122 
LUMCON,ioos:station:LUMCON:102:1,2011-05-04T01:00:00Z,29.1870,-90.6093,-9999.0,16.32,1111122 
LUMCON,ioos:station:LUMCON:102:1,2011-05-04T02:00:00Z,29.1870,-90.6093,-9999.0,16.4,1111122 
LUMCON,ioos:station:LUMCON:102:1,2011-05-04T03:00:00Z,29.1870,-90.6093,-9999.0,16.2,1111122 
LUMCON,ioos:station:LUMCON:102:1,2011-05-04T04:00:00Z,29.1870,-90.6093,-9999.0,15.92,1111122 
LUMCON,ioos:station:LUMCON:102:1,2011-05-04T05:00:00Z,29.1870,-90.6093,-9999.0,15.92,1111122 
LUMCON,ioos:station:LUMCON:102:1,2011-05-04T06:00:00Z,29.1870,-90.6093,-9999.0,16.32,1111122 
LUMCON,ioos:station:LUMCON:102:1,2011-05-04T07:00:00Z,29.1870,-90.6093,-9999.0,16.42,1111122 
LUMCON,ioos:station:LUMCON:102:1,2011-05-04T08:00:00Z,29.1870,-90.6093,-9999.0,16.21,1111122 
LUMCON,ioos:station:LUMCON:102:1,2011-05-04T09:00:00Z,29.1870,-90.6093,-9999.0,16.05,1111122 
LUMCON,ioos:station:LUMCON:102:1,2011-05-04T10:00:00Z,29.1870,-90.6093,-9999.0,17.38,1111122 
LUMCON,ioos:station:LUMCON:102:1,2011-05-04T11:00:00Z,29.1870,-90.6093,-9999.0,19.03,1111122 
LUMCON,ioos:station:LUMCON:102:1,2011-05-04T12:00:00Z,29.1870,-90.6093,-9999.0,19.86,1111122 
LUMCON,ioos:station:LUMCON:102:1,2011-05-04T13:00:00Z,29.1870,-90.6093,-9999.0,20.43,1111122 
LUMCON,ioos:station:LUMCON:102:1,2011-05-04T14:00:00Z,29.1870,-90.6093,-9999.0,20.55,1111122 
LUMCON,ioos:station:LUMCON:102:1,2011-05-04T15:00:00Z,29.1870,-90.6093,-9999.0,20.76,1111122 
LUMCON,ioos:station:LUMCON:102:1,2011-05-04T16:00:00Z,29.1870,-90.6093,-9999.0,20.89,1111122 
LUMCON,ioos:station:LUMCON:102:1,2011-05-04T17:00:00Z,29.1870,-90.6093,-9999.0,21.17,1111122 
LUMCON,ioos:station:LUMCON:102:1,2011-05-04T18:00:00Z,29.1870,-90.6093,-9999.0,21.24,1111122 
LUMCON,ioos:station:LUMCON:102:1,2011-05-04T19:00:00Z,29.1870,-90.6093,-9999.0,21.61,1111122 
LUMCON,ioos:station:LUMCON:102:1,2011-05-04T20:00:00Z,29.1870,-90.6093,-9999.0,21.08,1111122 
LUMCON,ioos:station:LUMCON:102:1,2011-05-04T21:00:00Z,29.1870,-90.6093,-9999.0,21.66,1111122 
LUMCON,ioos:station:LUMCON:102:1,2011-05-04T22:00:00Z,29.1870,-90.6093,-9999.0,20.88,1111122 
LUMCON,ioos:station:LUMCON:102:1,2011-05-04T23:00:00Z,29.1870,-90.6093,-9999.0,21.1,1111122 
LUMCON,ioos:station:LUMCON:102:1,2011-05-04T24:00:00Z,29.1870,-90.6093,-9999.0,20.88,1111122 
LUMCON,ioos:station:LUMCON:102:1,2011-05-05T01:00:00Z,29.1870,-90.6093,-9999.0,19.92,1111122 
LUMCON,ioos:station:LUMCON:102:1,2011-05-05T02:00:00Z,29.1870,-90.6093,-9999.0,19.37,1111122 
LUMCON,ioos:station:LUMCON:102:1,2011-05-05T03:00:00Z,29.1870,-90.6093,-9999.0,18.6,1111122 
LUMCON,ioos:station:LUMCON:102:1,2011-05-05T04:00:00Z,29.1870,-90.6093,-9999.0,18.44,1111122 
LUMCON,ioos:station:LUMCON:102:1,2011-05-05T05:00:00Z,29.1870,-90.6093,-9999.0,18.12,1111122 
LUMCON,ioos:station:LUMCON:102:1,2011-05-05T06:00:00Z,29.1870,-90.6093,-9999.0,17.49,1111122 
LUMCON,ioos:station:LUMCON:102:1,2011-05-05T07:00:00Z,29.1870,-90.6093,-9999.0,18.19,1111122 
LUMCON,ioos:station:LUMCON:102:1,2011-05-05T08:00:00Z,29.1870,-90.6093,-9999.0,17.4,1111122 
LUMCON,ioos:station:LUMCON:102:1,2011-05-05T09:00:00Z,29.1870,-90.6093,-9999.0,16.33,1111122 
LUMCON,ioos:station:LUMCON:102:1,2011-05-05T10:00:00Z,29.1870,-90.6093,-9999.0,17.45,1111122 
LUMCON,ioos:station:LUMCON:102:1,2011-05-05T11:00:00Z,29.1870,-90.6093,-9999.0,18.41,1111122 
LUMCON,ioos:station:LUMCON:102:1,2011-05-05T12:00:00Z,29.1870,-90.6093,-9999.0,18.95,1111122 
LUMCON,ioos:station:LUMCON:102:1,2011-05-05T13:00:00Z,29.1870,-90.6093,-9999.0,19.4,1111122 
LUMCON,ioos:station:LUMCON:102:1,2011-05-05T14:00:00Z,29.1870,-90.6093,-9999.0,19.92,1111122 
LUMCON,ioos:station:LUMCON:102:1,2011-05-05T15:00:00Z,29.1870,-90.6093,-9999.0,20.36,1111122 
LUMCON,ioos:station:LUMCON:102:1,2011-05-05T16:00:00Z,29.1870,-90.6093,-9999.0,19.85,1111122 
LUMCON,ioos:station:LUMCON:102:1,2011-05-05T17:00:00Z,29.1870,-90.6093,-9999.0,20.37,1111122 
LUMCON,ioos:station:LUMCON:102:1,2011-05-05T18:00:00Z,29.1870,-90.6093,-9999.0,20.2,1111122 
LUMCON,ioos:station:LUMCON:102:1,2011-05-05T19:00:00Z,29.1870,-90.6093,-9999.0,21.14,1111122 
LUMCON,ioos:station:LUMCON:102:1,2011-05-05T20:00:00Z,29.1870,-90.6093,-9999.0,21.08,1111122 
LUMCON,ioos:station:LUMCON:102:1,2011-05-05T21:00:00Z,29.1870,-90.6093,-9999.0,20.78,1111122 
LUMCON,ioos:station:LUMCON:102:1,2011-05-05T22:00:00Z,29.1870,-90.6093,-9999.0,20.56,1111122 
LUMCON,ioos:station:LUMCON:102:1,2011-05-05T23:00:00Z,29.1870,-90.6093,-9999.0,19.86,1111122 
LUMCON,ioos:station:LUMCON:102:1,2011-05-05T24:00:00Z,29.1870,-90.6093,-9999.0,18.99,1111122 
LUMCON,ioos:station:LUMCON:102:1,2011-05-06T01:00:00Z,29.1870,-90.6093,-9999.0,18.94,1111122 
LUMCON,ioos:station:LUMCON:102:1,2011-05-06T02:00:00Z,29.1870,-90.6093,-9999.0,19.11,1111122 
LUMCON,ioos:station:LUMCON:102:1,2011-05-06T03:00:00Z,29.1870,-90.6093,-9999.0,19.18,1111122 
LUMCON,ioos:station:LUMCON:102:1,2011-05-06T04:00:00Z,29.1870,-90.6093,-9999.0,19.04,1111122 
LUMCON,ioos:station:LUMCON:102:1,2011-05-06T05:00:00Z,29.1870,-90.6093,-9999.0,18.93,1111122 
LUMCON,ioos:station:LUMCON:102:1,2011-05-06T06:00:00Z,29.1870,-90.6093,-9999.0,19.49,1111122 
LUMCON,ioos:station:LUMCON:102:1,2011-05-06T07:00:00Z,29.1870,-90.6093,-9999.0,19.17,1111122 
LUMCON,ioos:station:LUMCON:102:1,2011-05-06T08:00:00Z,29.1870,-90.6093,-9999.0,19.04,1111122 
LUMCON,ioos:station:LUMCON:102:1,2011-05-06T09:00:00Z,29.1870,-90.6093,-9999.0,18.62,1111122 
LUMCON,ioos:station:LUMCON:102:1,2011-05-06T10:00:00Z,29.1870,-90.6093,-9999.0,19.41,1111122 
LUMCON,ioos:station:LUMCON:102:1,2011-05-06T11:00:00Z,29.1870,-90.6093,-9999.0,19.15,1111122 
LUMCON,ioos:station:LUMCON:102:1,2011-05-06T12:00:00Z,29.1870,-90.6093,-9999.0,18.97,1111122 
LUMCON,ioos:station:LUMCON:102:1,2011-05-06T13:00:00Z,29.1870,-90.6093,-9999.0,18.99,1111122 
LUMCON,ioos:station:LUMCON:102:1,2011-05-06T14:00:00Z,29.1870,-90.6093,-9999.0,19.25,1111122 
LUMCON,ioos:station:LUMCON:102:1,2011-05-06T15:00:00Z,29.1870,-90.6093,-9999.0,19.5,1111122 
LUMCON,ioos:station:LUMCON:102:1,2011-05-06T16:00:00Z,29.1870,-90.6093,-9999.0,19.9,1111122 
LUMCON,ioos:station:LUMCON:102:1,2011-05-06T17:00:00Z,29.1870,-90.6093,-9999.0,19.63,1111122 
LUMCON,ioos:station:LUMCON:102:1,2011-05-06T18:00:00Z,29.1870,-90.6093,-9999.0,19.55,1111122 
LUMCON,ioos:station:LUMCON:102:1,2011-05-06T19:00:00Z,29.1870,-90.6093,-9999.0,19.64,1111122 
LUMCON,ioos:station:LUMCON:102:1,2011-05-06T20:00:00Z,29.1870,-90.6093,-9999.0,19.87,1111122 
LUMCON,ioos:station:LUMCON:102:1,2011-05-06T21:00:00Z,29.1870,-90.6093,-9999.0,20.07,1111122 
LUMCON,ioos:station:LUMCON:102:1,2011-05-06T22:00:00Z,29.1870,-90.6093,-9999.0,19.77,1111122 
LUMCON,ioos:station:LUMCON:102:1,2011-05-06T23:00:00Z,29.1870,-90.6093,-9999.0,20.71,1111122 
LUMCON,ioos:station:LUMCON:102:1,2011-05-06T24:00:00Z,29.1870,-90.6093,-9999.0,21.4,1111122 
LUMCON,ioos:station:LUMCON:102:1,2011-05-07T01:00:00Z,29.1870,-90.6093,-9999.0,19.21,1111122 
LUMCON,ioos:station:LUMCON:102:1,2011-05-07T02:00:00Z,29.1870,-90.6093,-9999.0,19.69,1111122 
LUMCON,ioos:station:LUMCON:102:1,2011-05-07T03:00:00Z,29.1870,-90.6093,-9999.0,20.45,1111122 
LUMCON,ioos:station:LUMCON:102:1,2011-05-07T04:00:00Z,29.1870,-90.6093,-9999.0,19.91,1111122 
LUMCON,ioos:station:LUMCON:102:1,2011-05-07T05:00:00Z,29.1870,-90.6093,-9999.0,18.87,1111122 
LUMCON,ioos:station:LUMCON:102:1,2011-05-07T06:00:00Z,29.1870,-90.6093,-9999.0,17.97,1111122 
LUMCON,ioos:station:LUMCON:102:1,2011-05-07T07:00:00Z,29.1870,-90.6093,-9999.0,17.46,1111122 
LUMCON,ioos:station:LUMCON:102:1,2011-05-07T08:00:00Z,29.1870,-90.6093,-9999.0,17.2,1111122 
LUMCON,ioos:station:LUMCON:102:1,2011-05-07T09:00:00Z,29.1870,-90.6093,-9999.0,16.93,1111122 
LUMCON,ioos:station:LUMCON:102:1,2011-05-07T10:00:00Z,29.1870,-90.6093,-9999.0,16.13,1111122 
LUMCON,ioos:station:LUMCON:102:1,2011-05-07T11:00:00Z,29.1870,-90.6093,-9999.0,16.72,1111122 
LUMCON,ioos:station:LUMCON:102:1,2011-05-07T12:00:00Z,29.1870,-90.6093,-9999.0,17.25,1111122 
LUMCON,ioos:station:LUMCON:102:1,2011-05-07T13:00:00Z,29.1870,-90.6093,-9999.0,17.92,1111122 
LUMCON,ioos:station:LUMCON:102:1,2011-05-07T14:00:00Z,29.1870,-90.6093,-9999.0,18.41,1111122 
LUMCON,ioos:station:LUMCON:102:1,2011-05-07T15:00:00Z,29.1870,-90.6093,-9999.0,19.39,1111122 
LUMCON,ioos:station:LUMCON:102:1,2011-05-07T16:00:00Z,29.1870,-90.6093,-9999.0,21.58,1111122 
LUMCON,ioos:station:LUMCON:102:1,2011-05-07T17:00:00Z,29.1870,-90.6093,-9999.0,21.05,1111122 
LUMCON,ioos:station:LUMCON:102:1,2011-05-07T18:00:00Z,29.1870,-90.6093,-9999.0,20.03,1111122 
LUMCON,ioos:station:LUMCON:102:1,2011-05-07T19:00:00Z,29.1870,-90.6093,-9999.0,19.68,1111122 
LUMCON,ioos:station:LUMCON:102:1,2011-05-07T20:00:00Z,29.1870,-90.6093,-9999.0,20.15,1111122 
LUMCON,ioos:station:LUMCON:102:1,2011-05-07T21:00:00Z,29.1870,-90.6093,-9999.0,21.41,1111122 
LUMCON,ioos:station:LUMCON:102:1,2011-05-07T22:00:00Z,29.1870,-90.6093,-9999.0,21.39,1111122 
LUMCON,ioos:station:LUMCON:102:1,2011-05-07T23:00:00Z,29.1870,-90.6093,-9999.0,20.96,1111122 
LUMCON,ioos:station:LUMCON:102:1,2011-05-07T24:00:00Z,29.1870,-90.6093,-9999.0,21.4,1111122 
LUMCON,ioos:station:LUMCON:102:1,2011-05-08T01:00:00Z,29.1870,-90.6093,-9999.0,20.89,1111122 
LUMCON,ioos:station:LUMCON:102:1,2011-05-08T02:00:00Z,29.1870,-90.6093,-9999.0,20.41,1111122 
LUMCON,ioos:station:LUMCON:102:1,2011-05-08T03:00:00Z,29.1870,-90.6093,-9999.0,19.59,1111122 
LUMCON,ioos:station:LUMCON:102:1,2011-05-08T04:00:00Z,29.1870,-90.6093,-9999.0,18.72,1111122 
LUMCON,ioos:station:LUMCON:102:1,2011-05-08T05:00:00Z,29.1870,-90.6093,-9999.0,17.73,1111122 
LUMCON,ioos:station:LUMCON:102:1,2011-05-08T06:00:00Z,29.1870,-90.6093,-9999.0,17.32,1111122 
LUMCON,ioos:station:LUMCON:102:1,2011-05-08T07:00:00Z,29.1870,-90.6093,-9999.0,17.04,1111122 
LUMCON,ioos:station:LUMCON:102:1,2011-05-08T08:00:00Z,29.1870,-90.6093,-9999.0,16.06,1111122 
LUMCON,ioos:station:LUMCON:102:1,2011-05-08T09:00:00Z,29.1870,-90.6093,-9999.0,15.34,1111122 
LUMCON,ioos:station:LUMCON:102:1,2011-05-08T10:00:00Z,29.1870,-90.6093,-9999.0,17.32,1111122 
LUMCON,ioos:station:LUMCON:102:1,2011-05-08T11:00:00Z,29.1870,-90.6093,-9999.0,18.35,1111122 
LUMCON,ioos:station:LUMCON:102:1,2011-05-08T12:00:00Z,29.1870,-90.6093,-9999.0,18.99,1111122 
LUMCON,ioos:station:LUMCON:102:1,2011-05-08T13:00:00Z,29.1870,-90.6093,-9999.0,19.58,1111122 
LUMCON,ioos:station:LUMCON:102:1,2011-05-08T14:00:00Z,29.1870,-90.6093,-9999.0,20.48,1111122 
LUMCON,ioos:station:LUMCON:102:1,2011-05-08T15:00:00Z,29.1870,-90.6093,-9999.0,20.82,1111122 
LUMCON,ioos:station:LUMCON:102:1,2011-05-08T16:00:00Z,29.1870,-90.6093,-9999.0,21.25,1111122 
LUMCON,ioos:station:LUMCON:102:1,2011-05-08T17:00:00Z,29.1870,-90.6093,-9999.0,21.81,1111122 
LUMCON,ioos:station:LUMCON:102:1,2011-05-08T18:00:00Z,29.1870,-90.6093,-9999.0,21.97,1111122 
LUMCON,ioos:station:LUMCON:102:1,2011-05-08T19:00:00Z,29.1870,-90.6093,-9999.0,22.04,1111122 
LUMCON,ioos:station:LUMCON:102:1,2011-05-08T20:00:00Z,29.1870,-90.6093,-9999.0,22.09,1111122 
LUMCON,ioos:station:LUMCON:102:1,2011-05-08T21:00:00Z,29.1870,-90.6093,-9999.0,22.12,1111122 
LUMCON,ioos:station:LUMCON:102:1,2011-05-08T22:00:00Z,29.1870,-90.6093,-9999.0,21.88,1111122 
LUMCON,ioos:station:LUMCON:102:1,2011-05-08T23:00:00Z,29.1870,-90.6093,-9999.0,21.49,1111122 
LUMCON,ioos:station:LUMCON:102:1,2011-05-08T24:00:00Z,29.1870,-90.6093,-9999.0,20.76,1111122 
LUMCON,ioos:station:LUMCON:102:1,2011-05-09T01:00:00Z,29.1870,-90.6093,-9999.0,20.34,1111122 
LUMCON,ioos:station:LUMCON:102:1,2011-05-09T02:00:00Z,29.1870,-90.6093,-9999.0,20.18,1111122 
LUMCON,ioos:station:LUMCON:102:1,2011-05-09T03:00:00Z,29.1870,-90.6093,-9999.0,20.6,1111122 
LUMCON,ioos:station:LUMCON:102:1,2011-05-09T04:00:00Z,29.1870,-90.6093,-9999.0,20.24,1111122 
LUMCON,ioos:station:LUMCON:102:1,2011-05-09T05:00:00Z,29.1870,-90.6093,-9999.0,19.48,1111122 
LUMCON,ioos:station:LUMCON:102:1,2011-05-09T06:00:00Z,29.1870,-90.6093,-9999.0,18.94,1111122 
LUMCON,ioos:station:LUMCON:102:1,2011-05-09T07:00:00Z,29.1870,-90.6093,-9999.0,18.37,1111122 
LUMCON,ioos:station:LUMCON:102:1,2011-05-09T08:00:00Z,29.1870,-90.6093,-9999.0,17.95,1111122 
LUMCON,ioos:station:LUMCON:102:1,2011-05-09T09:00:00Z,29.1870,-90.6093,-9999.0,18.51,1111122 
LUMCON,ioos:station:LUMCON:102:1,2011-05-09T10:00:00Z,29.1870,-90.6093,-9999.0,18.54,1111122 
LUMCON,ioos:station:LUMCON:102:1,2011-05-09T11:00:00Z,29.1870,-90.6093,-9999.0,18.81,1111122 
LUMCON,ioos:station:LUMCON:102:1,2011-05-09T12:00:00Z,29.1870,-90.6093,-9999.0,18.76,1111122 
LUMCON,ioos:station:LUMCON:102:1,2011-05-09T13:00:00Z,29.1870,-90.6093,-9999.0,19.68,1111122 
LUMCON,ioos:station:LUMCON:102:1,2011-05-09T14:00:00Z,29.1870,-90.6093,-9999.0,20.44,1111122 
LUMCON,ioos:station:LUMCON:102:1,2011-05-09T15:00:00Z,29.1870,-90.6093,-9999.0,21.63,1111122 
LUMCON,ioos:station:LUMCON:102:1,2011-05-09T16:00:00Z,29.1870,-90.6093,-9999.0,21.88,1111122 
LUMCON,ioos:station:LUMCON:102:1,2011-05-09T17:00:00Z,29.1870,-90.6093,-9999.0,22.24,1111122 
LUMCON,ioos:station:LUMCON:102:1,2011-05-09T18:00:00Z,29.1870,-90.6093,-9999.0,22.23,1111122 
LUMCON,ioos:station:LUMCON:102:1,2011-05-09T19:00:00Z,29.1870,-90.6093,-9999.0,22.0,1111122 
LUMCON,ioos:station:LUMCON:102:1,2011-05-09T20:00:00Z,29.1870,-90.6093,-9999.0,21.33,1111122 
LUMCON,ioos:station:LUMCON:102:1,2011-05-09T21:00:00Z,29.1870,-90.6093,-9999.0,21.48,1111122 
LUMCON,ioos:station:LUMCON:102:1,2011-05-09T22:00:00Z,29.1870,-90.6093,-9999.0,21.87,1111122 
LUMCON,ioos:station:LUMCON:102:1,2011-05-09T23:00:00Z,29.1870,-90.6093,-9999.0,21.85,1111122 
LUMCON,ioos:station:LUMCON:102:1,2011-05-09T24:00:00Z,29.1870,-90.6093,-9999.0,21.69,1111122 
LUMCON,ioos:station:LUMCON:102:1,2011-05-10T01:00:00Z,29.1870,-90.6093,-9999.0,21.83,1111122 
LUMCON,ioos:station:LUMCON:102:1,2011-05-10T02:00:00Z,29.1870,-90.6093,-9999.0,21.93,1111122 
LUMCON,ioos:station:LUMCON:102:1,2011-05-10T03:00:00Z,29.1870,-90.6093,-9999.0,21.31,1111122 
LUMCON,ioos:station:LUMCON:102:1,2011-05-10T04:00:00Z,29.1870,-90.6093,-9999.0,20.89,1111122 
LUMCON,ioos:station:LUMCON:102:1,2011-05-10T05:00:00Z,29.1870,-90.6093,-9999.0,20.39,1111122 
LUMCON,ioos:station:LUMCON:102:1,2011-05-10T06:00:00Z,29.1870,-90.6093,-9999.0,19.97,1111122 
LUMCON,ioos:station:LUMCON:102:1,2011-05-10T07:00:00Z,29.1870,-90.6093,-9999.0,19.85,1111122 
LUMCON,ioos:station:LUMCON:102:1,2011-05-10T08:00:00Z,29.1870,-90.6093,-9999.0,19.87,1111122 
LUMCON,ioos:station:LUMCON:102:1,2011-05-10T09:00:00Z,29.1870,-90.6093,-9999.0,19.97,1111122 
LUMCON,ioos:station:LUMCON:102:1,2011-05-10T10:00:00Z,29.1870,-90.6093,-9999.0,19.34,1111122 
LUMCON,ioos:station:LUMCON:102:1,2011-05-10T11:00:00Z,29.1870,-90.6093,-9999.0,19.65,1111122 
LUMCON,ioos:station:LUMCON:102:1,2011-05-10T12:00:00Z,29.1870,-90.6093,-9999.0,19.67,1111122 
LUMCON,ioos:station:LUMCON:102:1,2011-05-10T13:00:00Z,29.1870,-90.6093,-9999.0,19.79,1111122 
LUMCON,ioos:station:LUMCON:102:1,2011-05-10T14:00:00Z,29.1870,-90.6093,-9999.0,20.56,1111122 
LUMCON,ioos:station:LUMCON:102:1,2011-05-10T15:00:00Z,29.1870,-90.6093,-9999.0,20.83,1111122 
LUMCON,ioos:station:LUMCON:102:1,2011-05-10T16:00:00Z,29.1870,-90.6093,-9999.0,21.01,1111122 
LUMCON,ioos:station:LUMCON:102:1,2011-05-10T17:00:00Z,29.1870,-90.6093,-9999.0,21.02,1111122 
LUMCON,ioos:station:LUMCON:102:1,2011-05-10T18:00:00Z,29.1870,-90.6093,-9999.0,21.09,1111122 
LUMCON,ioos:station:LUMCON:102:1,2011-05-10T19:00:00Z,29.1870,-90.6093,-9999.0,21.2,1111122 
LUMCON,ioos:station:LUMCON:102:1,2011-05-10T20:00:00Z,29.1870,-90.6093,-9999.0,21.06,1111122 
LUMCON,ioos:station:LUMCON:102:1,2011-05-13T15:00:00Z,29.1870,-90.6093,0.0,20.89,1111122 
LUMCON,ioos:station:LUMCON:102:1,2011-05-13T17:00:00Z,29.1870,-90.6093,0.0,20.48,1111122 
LUMCON,ioos:station:LUMCON:102:1,2011-05-13T19:00:00Z,29.1870,-90.6093,0.0,21.0,1111122 
LUMCON,ioos:station:LUMCON:102:1,2011-05-13T20:00:00Z,29.1870,-90.6093,0.0,20.59,1111122 
LUMCON,ioos:station:LUMCON:102:1,2011-05-13T21:00:00Z,29.1870,-90.6093,0.0,19.78,1111122 
LUMCON,ioos:station:LUMCON:102:1,2011-05-13T23:00:00Z,29.1870,-90.6093,0.0,19.88,1111122 
LUMCON,ioos:station:LUMCON:102:1,2011-05-14T01:00:00Z,29.1870,-90.6093,0.0,20.0,1111122 
LUMCON,ioos:station:LUMCON:102:1,2011-05-14T02:00:00Z,29.1870,-90.6093,0.0,19.9,1111122 
LUMCON,ioos:station:LUMCON:102:1,2011-05-14T03:00:00Z,29.1870,-90.6093,0.0,19.85,1111122 
LUMCON,ioos:station:LUMCON:102:1,2011-05-14T04:00:00Z,29.1870,-90.6093,0.0,19.9,1111122 
LUMCON,ioos:station:LUMCON:102:1,2011-05-14T05:00:00Z,29.1870,-90.6093,0.0,17.81,1111122 
LUMCON,ioos:station:LUMCON:102:1,2011-05-14T06:00:00Z,29.1870,-90.6093,0.0,19.76,1111122 
LUMCON,ioos:station:LUMCON:102:1,2011-05-14T07:00:00Z,29.1870,-90.6093,0.0,20.82,1111122 
LUMCON,ioos:station:LUMCON:102:1,2011-05-14T08:00:00Z,29.1870,-90.6093,0.0,18.89,1111122 
LUMCON,ioos:station:LUMCON:102:1,2011-05-14T09:00:00Z,29.1870,-90.6093,0.0,18.89,1111122 
LUMCON,ioos:station:LUMCON:102:1,2011-05-14T10:00:00Z,29.1870,-90.6093,0.0,18.89,1111122 
LUMCON,ioos:station:LUMCON:102:1,2011-05-14T13:00:00Z,29.1870,-90.6093,0.0,16.54,1111122 
LUMCON,ioos:station:LUMCON:102:1,2011-05-14T15:00:00Z,29.1870,-90.6093,0.0,17.51,1111122 
LUMCON,ioos:station:LUMCON:102:1,2011-05-14T16:00:00Z,29.1870,-90.6093,0.0,17.29,1111122 